User: anonymous   Login
Location: Caltech
(34.1382°N, 118.1253°W)
Time: 08:45:22
(UTC-07:00)
Language:

BREEZE M DEB (TANK) - Orbit

View from above orbital plane
View from above orbital plane
View from above satellite
View from above satellite

Ground track
Ground track

The orbit data is extracted from the following two-line orbital elements,

1 33437U 08057B   16144.59714889  .00001459  00000-0  38556-3 0  9996
2 33437  49.5516 219.2559 4990591 152.4413 246.6458  5.59486479152046
Epoch (UTC): 23 May 2016 14:19:53
Eccentricity: 0.4990591
inclination: 49.5516°
perigee height: 336 km
apogee height: 13714 km
right ascension of ascending node: 219.2559°
argument of perigee: 152.4413°
revolutions per day: 5.59486479
mean anomaly at epoch: 246.6458°
orbit number at epoch: 15204

The dashed part of the orbit path shows where the satellite is in the earth's shadow,  

DLR